TimeEET,TemperatureF,Dew PointF,Humidity,Sea Level PressureIn,VisibilityMPH,Wind Direction,Wind SpeedMPH,Gust SpeedMPH,PrecipitationIn,Events,Conditions,WindDirDegrees,DateUTC
12:00 AM,62.6,42.8,48,29.98,-9999.0,Calm,Calm,-,N/A,,Clear,0,2012-11-19 22:00:00
1:00 AM,62.6,42.8,48,29.98,-9999.0,Calm,Calm,-,N/A,,Clear,0,2012-11-19 23:00:00
2:00 AM,59,47,56,29.98,6,NNW,2.3,,,,,330,2012-11-20 00:00:00
2:00 AM,59.0,48.2,67,29.98,-9999.0,NNW,2.3,-,N/A,,Clear,330,2012-11-20 00:00:00
3:00 AM,59.0,48.2,67,29.98,-9999.0,NNW,2.3,-,N/A,,Clear,330,2012-11-20 01:00:00
4:00 AM,59.0,41.0,51,29.98,-9999.0,SSE,4.6,-,N/A,,Clear,160,2012-11-20 02:00:00
5:00 AM,59.0,41.0,51,29.98,-9999.0,Calm,Calm,-,N/A,,Clear,0,2012-11-20 03:00:00
6:00 AM,55.4,41.0,58,29.98,-9999.0,NW,2.3,-,N/A,,Clear,320,2012-11-20 04:00:00
7:00 AM,59.0,41.0,51,30.01,-9999.0,Calm,Calm,-,N/A,,Clear,0,2012-11-20 05:00:00
8:00 AM,64,44,36,30.02,6,Calm,Calm,,,,,,2012-11-20 06:00:00
8:00 AM,64.4,44.6,49,30.01,-9999.0,Calm,Calm,-,N/A,,Clear,0,2012-11-20 06:00:00
9:00 AM,69.8,46.4,43,30.04,-9999.0,Calm,Calm,-,N/A,,Clear,0,2012-11-20 07:00:00
10:00 AM,73.4,53.6,50,30.01,-9999.0,North,4.6,-,N/A,,Clear,350,2012-11-20 08:00:00
11:00 AM,77.0,59.0,54,29.98,-9999.0,Calm,Calm,-,N/A,,Clear,0,2012-11-20 09:00:00
12:00 PM,82.4,59.0,45,29.98,-9999.0,Calm,Calm,-,N/A,,Clear,0,2012-11-20 10:00:00
1:00 PM,82.4,57.2,42,29.95,-9999.0,North,2.3,-,N/A,,Clear,10,2012-11-20 11:00:00
2:00 PM,84,55,27,29.93,6,NW,2.3,,,,,320,2012-11-20 12:00:00
2:00 PM,84.2,55.4,37,29.92,-9999.0,NW,2.3,-,N/A,,Clear,320,2012-11-20 12:00:00
3:00 PM,84.2,55.4,37,29.92,-9999.0,NW,2.3,-,N/A,,Clear,310,2012-11-20 13:00:00
4:00 PM,82.4,51.8,35,29.92,-9999.0,Calm,Calm,-,N/A,,Clear,0,2012-11-20 14:00:00
5:00 PM,80.6,53.6,39,29.92,-9999.0,Calm,Calm,-,N/A,,Clear,0,2012-11-20 15:00:00
6:00 PM,77.0,53.6,44,29.92,-9999.0,NNW,2.3,-,N/A,,Clear,330,2012-11-20 16:00:00
7:00 PM,73.4,50.0,44,29.95,-9999.0,Calm,Calm,-,N/A,,Clear,0,2012-11-20 17:00:00
8:00 PM,72,48,31,29.95,6,South,2.3,,,,,180,2012-11-20 18:00:00
8:00 PM,71.6,48.2,43,29.95,-9999.0,South,2.3,-,N/A,,Clear,180,2012-11-20 18:00:00
9:00 PM,69.8,46.4,43,29.95,-9999.0,SSE,1.2,-,N/A,,Clear,160,2012-11-20 19:00:00
10:00 PM,66.2,46.4,49,29.95,-9999.0,Calm,Calm,-,N/A,,Clear,0,2012-11-20 20:00:00
11:00 PM,66.2,46.4,49,29.95,-9999.0,Calm,Calm,-,N/A,,Clear,0,2012-11-20 21:00:00